Portada
METAR-TAF:

METAR-TAF

Aeroports :

Tena, Equador

latitud: 01-03-35S, longitud: 77-35-00W, altitud: 376 m

Observació

L'informe es va fer fa 4 hores i 3 minuts, a les 22:00 UTC
Vent 4 kt del Est/Nord-Est
Temperatura 30°C
Humitat 62%
Pressió 1008 hPa
Visibilitat 10 km o més
Escasses núvols a una alçada de 2300 ft

METAR: SEJD 082200Z 06004KT 9999 FEW023 30/22 Q1008 RMK A2977

Hora: 21:03 (02:03 UTC)


TAF: manca

Observacions i pronòstics meteorològics de més de 4000 aeroports (METAR i TAF).

Les estacions disponibles són els punts grocs i vermells al mapa.

Posi el ratolí al punt desitjat per veure el nom de l'estació.

Feu clic per veure les observacions i els pronòstics meteorològics.

Per canviar el mapa: feu clic els botons verds amb una creu de color negre per apropar; al botó verd amb un guió per allunyar la imatge; o en les fletxes verdes per a mapes adjacents.


METAR-TAF: